QPF
0.02 0.02 0.02 0.02 0.02 0.03 0.03 0.03 0.02 0.02 0.02 0.02 0.02 0.02 0.02 0.02 0.02 0.02 0.03 0.04 0.04 0.03 0.02 0.02 0.01 0.01 0.01 0.01 0.01 0.01 0.01 0.01 0.01 0.01 0.00 0.00 0.00 0.01 0.01 0.01 0.01 0.01 0.01
0.02 0.02 0.03 0.04 0.04 0.03 0.03 0.03 0.03 0.02 0.02 0.02 0.02 0.02 0.02 0.02 0.02 0.02 0.02 0.04 0.04 0.05 0.04 0.03 0.02 0.02 0.02 0.02 0.02 0.02 0.02 0.02 0.02 0.01 0.00 0.00 0.00 0.00 0.00 0.01 0.01 0.01 0.01
0.01 0.02 0.02 0.03 0.04 0.04 0.03 0.03 0.03 0.02 0.02 0.02 0.02 0.02 0.02 0.02 0.02 0.02 0.02 0.03 0.03 0.04 0.04 0.03 0.03 0.03 0.03 0.02 0.02 0.02 0.02 0.02 0.02 0.02 0.01 0.01 0.01 0.01 0.01 0.01 0.01 0.01 0.01
0.01 0.01 0.02 0.02 0.02 0.02 0.03 0.03 0.03 0.03 0.02 0.02 0.02 0.02 0.02 0.02 0.01 0.01 0.02 0.02 0.03 0.04 0.04 0.03 0.02 0.02 0.02 0.02 0.02 0.02 0.02 0.02 0.02 0.02 0.01 0.01 0.01 0.01 0.01 0.01 0.00 0.00 0.00
0.01 0.01 0.01 0.02 0.02 0.01 0.02 0.02 0.03 0.03 0.03 0.02 0.02 0.02 0.02 0.02 0.02 0.01 0.02 0.02 0.03 0.03 0.03 0.03 0.03 0.02 0.01 0.01 0.01 0.01 0.01 0.02 0.02 0.02 0.01 0.01 0.01 0.01 0.01 0.01 0.01 0.01 0.01
0.01 0.01 0.01 0.01 0.02 0.02 0.02 0.02 0.02 0.02 0.03 0.03 0.03 0.02 0.02 0.02 0.02 0.02 0.02 0.02 0.02 0.02 0.02 0.02 0.03 0.02 0.02 0.01 0.01 0.01 0.01 0.02 0.02 0.02 0.02 0.01 0.01 0.01 0.01 0.01 0.01 0.01 0.01
0.02 0.01 0.01 0.01 0.01 0.01 0.02 0.01 0.01 0.02 0.02 0.03 0.03 0.03 0.03 0.02 0.02 0.02 0.03 0.03 0.03 0.03 0.02 0.02 0.02 0.03 0.02 0.01 0.01 0.01 0.01 0.01 0.01 0.01 0.01 0.01 0.01 0.01 0.01 0.01 0.01 0.01 0.01
0.02 0.02 0.01 0.01 0.01 0.01 0.01 0.01 0.01 0.01 0.02 0.03 0.03 0.03 0.03 0.02 0.02 0.03 0.03 0.03 0.04 0.04 0.03 0.03 0.03 0.02 0.02 0.02 0.01 0.01 0.01 0.01 0.01 0.01 0.01 0.01 0.01 0.01 0.01 0.01 0.01 0.01 0.01
0.02 0.02 0.02 0.01 0.01 0.01 0.01 0.01 0.01 0.01 0.02 0.02 0.03 0.03 0.03 0.03 0.03 0.04 0.05 0.05 0.03 0.04 0.04 0.03 0.03 0.02 0.03 0.03 0.02 0.02 0.01 0.01 0.01 0.01 0.02 0.02 0.02 0.02 0.02 0.02 0.01 0.01 0.01
0.02 0.02 0.02 0.02 0.02 0.01 0.01 0.01 0.02 0.02 0.02 0.02 0.02 0.03 0.03 0.03 0.03 0.04 0.06 0.05 0.03 0.03 0.03 0.03 0.02 0.02 0.03 0.03 0.03 0.02 0.02 0.01 0.01 0.01 0.01 0.01 0.01 0.01 0.01 0.01 0.01 0.02 0.01
0.02 0.02 0.02 0.02 0.02 0.02 0.02 0.02 0.02 0.02 0.02 0.02 0.02 0.02 0.02 0.02 0.02 0.04 0.05 0.04 0.03 0.02 0.02 0.03 0.02 0.02 0.03 0.03 0.03 0.02 0.01 0.01 0.01 0.01 0.01 0.01 0.01 0.01 0.01 0.01 0.00 0.01 0.01
0.02 0.02 0.02 0.02 0.02 0.02 0.02 0.02 0.02 0.02 0.02 0.02 0.02 0.01 0.02 0.02 0.02 0.02 0.03 0.03 0.02 0.02 0.02 0.02 0.02 0.03 0.04 0.04 0.03 0.02 0.02 0.02 0.03 0.02 0.02 0.02 0.01 0.01 0.00 0.00 0.00 0.00 0.00
0.01 0.01 0.01 0.01 0.01 0.01 0.01 0.02 0.02 0.02 0.02 0.02 0.01 0.01 0.01 0.01 0.02 0.02 0.03 0.03 0.03 0.02 0.02 0.03 0.03 0.04 0.05 0.05 0.05 0.04 0.04 0.03 0.03 0.03 0.02 0.02 0.01 0.01 0.01 0.01 0.01 0.00 0.00
0.01 0.01 0.01 0.01 0.01 0.01 0.01 0.01 0.01 0.01 0.02 0.02 0.02 0.01 0.01 0.01 0.02 0.02 0.02 0.03 0.03 0.03 0.03 0.03 0.04 0.06 0.07 0.06 0.06 0.05 0.04 0.03 0.03 0.02 0.02 0.01 0.01 0.01 0.02 0.01 0.01 0.01 0.01
0.01 0.01 0.01 0.01 0.01 0.01 0.01 0.02 0.02 0.02 0.02 0.02 0.02 0.02 0.02 0.02 0.01 0.02 0.03 0.03 0.04 0.03 0.03 0.03 0.04 0.05 0.06 0.05 0.04 0.04 0.03 0.03 0.03 0.03 0.02 0.02 0.01 0.01 0.01 0.01 0.02 0.01 0.01
0.01 0.01 0.01 0.01 0.01 0.01 0.01 0.01 0.01 0.02 0.02 0.02 0.02 0.03 0.03 0.02 0.02 0.03 0.03 0.04 0.04 0.04 0.04 0.05 0.04 0.03 0.03 0.03 0.03 0.03 0.02 0.03 0.03 0.03 0.02 0.02 0.02 0.01 0.01 0.01 0.02 0.02 0.02
0.01 0.01 0.01 0.01 0.01 0.01 0.01 0.01 0.01 0.01 0.01 0.01 0.02 0.02 0.03 0.03 0.03 0.03 0.04 0.04 0.05 0.05 0.05 0.04 0.04 0.03 0.03 0.03 0.03 0.03 0.03 0.02 0.02 0.02 0.02 0.02 0.02 0.02 0.02 0.02 0.02 0.02 0.02
0.01 0.01 0.01 0.01 0.01 0.01 0.01 0.01 0.01 0.01 0.01 0.01 0.02 0.02 0.02 0.03 0.03 0.04 0.04 0.04 0.05 0.05 0.04 0.03 0.03 0.03 0.03 0.03 0.03 0.03 0.03 0.03 0.03 0.03 0.03 0.02 0.02 0.02 0.02 0.02 0.02 0.02 0.02
0.01 0.01 0.01 0.01 0.01 0.01 0.01 0.01 0.01 0.01 0.01 0.01 0.01 0.01 0.01 0.02 0.03 0.03 0.03 0.04 0.04 0.04 0.04 0.03 0.03 0.03 0.03 0.03 0.03 0.03 0.03 0.03 0.03 0.03 0.03 0.03 0.03 0.03 0.03 0.02 0.02 0.02 0.02
0.01 0.01 0.01 0.01 0.01 0.01 0.01 0.01 0.01 0.01 0.01 0.01 0.01 0.01 0.01 0.01 0.02 0.02 0.02 0.03 0.03 0.03 0.03 0.03 0.03 0.03 0.03 0.03 0.03 0.03 0.03 0.03 0.03 0.03 0.02 0.02 0.02 0.02 0.03 0.03 0.03 0.03 0.03
0.01 0.01 0.01 0.01 0.01 0.01 0.01 0.01 0.01 0.01 0.01 0.00 0.00 0.01 0.01 0.02 0.01 0.01 0.02 0.02 0.02 0.03 0.03 0.03 0.03 0.03 0.03 0.03 0.03 0.03 0.03 0.03 0.02 0.02 0.02 0.02 0.02 0.02 0.02 0.02 0.02 0.02 0.02
0.01 0.01 0.01 0.00 0.00 0.01 0.01 0.01 0.01 0.01 0.01 0.01 0.00 0.00 0.01 0.01 0.01 0.01 0.01 0.02 0.02 0.02 0.02 0.03 0.03 0.02 0.03 0.03 0.03 0.03 0.03 0.03 0.02 0.02 0.02 0.02 0.02 0.02 0.02 0.02 0.02 0.02 0.02
0.01 0.01 0.00 0.00 0.00 0.01 0.01 0.01 0.00 0.00 0.00 0.00 0.01 0.01 0.01 0.01 0.01 0.01 0.01 0.02 0.02 0.02 0.02 0.03 0.02 0.02 0.02 0.02 0.03 0.03 0.03 0.02 0.02 0.02 0.02 0.02 0.02 0.02 0.02 0.02 0.02 0.02 0.02
0.01 0.01 0.01 0.00 0.00 0.00 0.00 0.00 0.00 0.00 0.00 0.01 0.01 0.01 0.01 0.01 0.01 0.01 0.01 0.02 0.02 0.02 0.02 0.02 0.02 0.02 0.02 0.02 0.02 0.02 0.02 0.02 0.02 0.02 0.02 0.02 0.02 0.02 0.02 0.02 0.02 0.02 0.02
0.01 0.01 0.01 0.01 0.01 0.01 0.00 0.00 0.00 0.00 0.00 0.00 0.01 0.01 0.01 0.01 0.01 0.01 0.02 0.02 0.01 0.01 0.01 0.01 0.02 0.02 0.02 0.02 0.02 0.02 0.02 0.02 0.02 0.02 0.02 0.02 0.02 0.02 0.02 0.02 0.02 0.02 0.02
0.00 0.00 0.01 0.01 0.01 0.01 0.01 0.01 0.01 0.00 0.01 0.01 0.01 0.01 0.01 0.01 0.01 0.01 0.01 0.01 0.01 0.01 0.01 0.01 0.02 0.02 0.02 0.02 0.02 0.02 0.02 0.02 0.01 0.02 0.02 0.02 0.02 0.02 0.02 0.02 0.02 0.02 0.02
MSLP
1026.03 1025.46 1024.95 1024.56 1024.31 1024.20 1024.24 1024.41 1024.67 1025.01 1025.37 1025.72 1026.04 1026.32 1026.55 1026.74 1026.91 1027.07 1027.23 1027.41 1027.60 1027.81 1028.02 1028.24 1028.44 1028.64 1028.83 1029.02 1029.20 1029.40 1029.61 1029.84 1030.08 1030.31 1030.54 1030.75 1030.93 1031.07 1031.18 1031.26 1031.31 1031.35 1031.39
1026.96 1026.35 1025.81 1025.37 1025.04 1024.86 1024.82 1024.91 1025.10 1025.34 1025.62 1025.90 1026.15 1026.36 1026.54 1026.68 1026.82 1026.96 1027.11 1027.29 1027.49 1027.70 1027.93 1028.15 1028.36 1028.56 1028.74 1028.92 1029.10 1029.30 1029.51 1029.75 1030.01 1030.28 1030.54 1030.78 1030.99 1031.16 1031.28 1031.36 1031.40 1031.42 1031.43
1027.91 1027.30 1026.74 1026.26 1025.88 1025.64 1025.52 1025.52 1025.60 1025.75 1025.93 1026.11 1026.27 1026.41 1026.51 1026.61 1026.70 1026.81 1026.96 1027.14 1027.35 1027.59 1027.83 1028.07 1028.29 1028.49 1028.68 1028.85 1029.03 1029.22 1029.44 1029.69 1029.96 1030.25 1030.54 1030.80 1031.04 1031.22 1031.36 1031.44 1031.48 1031.48 1031.47
1028.86 1028.26 1027.70 1027.19 1026.77 1026.46 1026.27 1026.18 1026.17 1026.22 1026.29 1026.37 1026.44 1026.48 1026.52 1026.55 1026.61 1026.70 1026.83 1027.01 1027.23 1027.48 1027.74 1027.99 1028.23 1028.44 1028.63 1028.80 1028.97 1029.16 1029.38 1029.62 1029.90 1030.19 1030.50 1030.78 1031.03 1031.24 1031.39 1031.48 1031.52 1031.51 1031.48
1029.78 1029.21 1028.64 1028.12 1027.67 1027.31 1027.05 1026.88 1026.78 1026.74 1026.72 1026.70 1026.68 1026.65 1026.62 1026.60 1026.62 1026.67 1026.79 1026.96 1027.19 1027.44 1027.71 1027.97 1028.21 1028.42 1028.60 1028.77 1028.93 1029.11 1029.31 1029.55 1029.82 1030.11 1030.42 1030.71 1030.98 1031.20 1031.36 1031.46 1031.51 1031.51 1031.48
1030.66 1030.12 1029.56 1029.04 1028.56 1028.17 1027.85 1027.62 1027.45 1027.33 1027.24 1027.15 1027.06 1026.97 1026.88 1026.82 1026.79 1026.82 1026.91 1027.06 1027.27 1027.52 1027.78 1028.03 1028.27 1028.47 1028.64 1028.79 1028.94 1029.10 1029.28 1029.50 1029.75 1030.04 1030.34 1030.63 1030.89 1031.12 1031.29 1031.41 1031.47 1031.49 1031.46
1031.49 1030.98 1030.44 1029.92 1029.44 1029.03 1028.68 1028.41 1028.20 1028.03 1027.89 1027.75 1027.61 1027.48 1027.35 1027.25 1027.19 1027.18 1027.24 1027.36 1027.54 1027.76 1028.00 1028.23 1028.45 1028.63 1028.79 1028.92 1029.04 1029.18 1029.34 1029.53 1029.76 1030.02 1030.30 1030.58 1030.84 1031.07 1031.24 1031.37 1031.44 1031.46 1031.45
1032.24 1031.77 1031.27 1030.77 1030.30 1029.89 1029.54 1029.26 1029.03 1028.84 1028.67 1028.51 1028.35 1028.19 1028.03 1027.90 1027.81 1027.76 1027.78 1027.87 1028.01 1028.19 1028.39 1028.60 1028.78 1028.95 1029.08 1029.20 1029.31 1029.42 1029.55 1029.72 1029.92 1030.15 1030.40 1030.66 1030.90 1031.10 1031.27 1031.39 1031.46 1031.49 1031.48
1032.88 1032.47 1032.01 1031.56 1031.12 1030.74 1030.41 1030.14 1029.92 1029.73 1029.56 1029.40 1029.23 1029.06 1028.89 1028.73 1028.61 1028.53 1028.51 1028.55 1028.65 1028.79 1028.95 1029.13 1029.29 1029.43 1029.55 1029.66 1029.75 1029.85 1029.97 1030.11 1030.28 1030.48 1030.69 1030.91 1031.11 1031.29 1031.43 1031.53 1031.59 1031.61 1031.59
1033.40 1033.05 1032.66 1032.26 1031.88 1031.54 1031.25 1031.01 1030.81 1030.65 1030.49 1030.34 1030.18 1030.00 1029.82 1029.65 1029.50 1029.39 1029.34 1029.34 1029.40 1029.50 1029.64 1029.79 1029.93 1030.07 1030.19 1030.29 1030.39 1030.48 1030.59 1030.71 1030.86 1031.02 1031.19 1031.36 1031.52 1031.65 1031.74 1031.80 1031.83 1031.82 1031.78
1033.77 1033.49 1033.18 1032.85 1032.53 1032.25 1032.01 1031.81 1031.65 1031.51 1031.38 1031.24 1031.08 1030.91 1030.73 1030.55 1030.38 1030.26 1030.17 1030.15 1030.18 1030.26 1030.38 1030.52 1030.67 1030.81 1030.93 1031.05 1031.16 1031.26 1031.36 1031.48 1031.60 1031.73 1031.86 1031.98 1032.08 1032.16 1032.20 1032.20 1032.17 1032.12 1032.04
1033.97 1033.77 1033.54 1033.29 1033.04 1032.82 1032.63 1032.48 1032.35 1032.24 1032.13 1032.01 1031.86 1031.70 1031.51 1031.33 1031.16 1031.03 1030.93 1030.90 1030.92 1031.00 1031.11 1031.26 1031.41 1031.57 1031.72 1031.86 1031.98 1032.10 1032.21 1032.32 1032.43 1032.53 1032.62 1032.69 1032.74 1032.76 1032.74 1032.68 1032.59 1032.48 1032.35
1034.00 1033.89 1033.73 1033.56 1033.39 1033.23 1033.09 1032.98 1032.88 1032.79 1032.70 1032.58 1032.45 1032.29 1032.11 1031.93 1031.77 1031.64 1031.55 1031.52 1031.55 1031.63 1031.76 1031.92 1032.10 1032.28 1032.45 1032.62 1032.76 1032.90 1033.02 1033.12 1033.22 1033.30 1033.37 1033.40 1033.41 1033.37 1033.29 1033.18 1033.03 1032.85 1032.66
1033.90 1033.85 1033.77 1033.67 1033.56 1033.45 1033.36 1033.29 1033.21 1033.14 1033.05 1032.95 1032.82 1032.66 1032.50 1032.33 1032.18 1032.07 1032.00 1031.99 1032.03 1032.14 1032.28 1032.46 1032.66 1032.86 1033.06 1033.24 1033.40 1033.55 1033.67 1033.78 1033.87 1033.95 1033.99 1034.00 1033.98 1033.91 1033.79 1033.62 1033.42 1033.19 1032.94
1033.68 1033.69 1033.67 1033.62 1033.57 1033.52 1033.46 1033.41 1033.36 1033.30 1033.22 1033.11 1032.99 1032.84 1032.69 1032.54 1032.42 1032.32 1032.28 1032.30 1032.37 1032.49 1032.65 1032.85 1033.06 1033.27 1033.47 1033.66 1033.82 1033.97 1034.10 1034.21 1034.30 1034.37 1034.41 1034.41 1034.38 1034.29 1034.15 1033.97 1033.73 1033.46 1033.16
1033.39 1033.44 1033.47 1033.47 1033.46 1033.45 1033.43 1033.40 1033.36 1033.31 1033.23 1033.13 1033.01 1032.88 1032.74 1032.61 1032.51 1032.44 1032.43 1032.46 1032.56 1032.70 1032.87 1033.07 1033.28 1033.48 1033.67 1033.85 1034.00 1034.14 1034.26 1034.37 1034.46 1034.53 1034.58 1034.59 1034.56 1034.49 1034.36 1034.17 1033.93 1033.63 1033.30
1033.06 1033.14 1033.20 1033.25 1033.28 1033.30 1033.31 1033.30 1033.27 1033.23 1033.15 1033.06 1032.94 1032.82 1032.70 1032.59 1032.51 1032.47 1032.48 1032.54 1032.64 1032.79 1032.96 1033.14 1033.33 1033.51 1033.68 1033.83 1033.96 1034.07 1034.18 1034.27 1034.36 1034.44 1034.50 1034.54 1034.54 1034.49 1034.39 1034.22 1033.99 1033.70 1033.36
1032.71 1032.81 1032.90 1032.99 1033.06 1033.11 1033.15 1033.16 1033.14 1033.10 1033.04 1032.95 1032.84 1032.73 1032.62 1032.53 1032.47 1032.45 1032.47 1032.54 1032.65 1032.78 1032.94 1033.10 1033.25 1033.40 1033.52 1033.63 1033.73 1033.81 1033.89 1033.98 1034.06 1034.15 1034.23 1034.29 1034.32 1034.31 1034.24 1034.11 1033.91 1033.64 1033.31
1032.35 1032.47 1032.59 1032.71 1032.81 1032.90 1032.96 1032.99 1032.99 1032.96 1032.90 1032.81 1032.71 1032.61 1032.51 1032.44 1032.39 1032.39 1032.41 1032.48 1032.58 1032.70 1032.83 1032.96 1033.07 1033.17 1033.25 1033.32 1033.37 1033.42 1033.47 1033.54 1033.62 1033.70 1033.80 1033.88 1033.94 1033.96 1033.93 1033.84 1033.68 1033.44 1033.13
1031.98 1032.13 1032.28 1032.43 1032.56 1032.68 1032.76 1032.81 1032.82 1032.80 1032.74 1032.66 1032.57 1032.47 1032.38 1032.31 1032.28 1032.27 1032.30 1032.37 1032.45 1032.55 1032.65 1032.74 1032.81 1032.87 1032.90 1032.92 1032.93 1032.94 1032.97 1033.01 1033.07 1033.16 1033.25 1033.34 1033.42 1033.47 1033.47 1033.40 1033.27 1033.06 1032.78
1031.61 1031.78 1031.96 1032.14 1032.30 1032.44 1032.54 1032.60 1032.62 1032.60 1032.55 1032.47 1032.38 1032.28 1032.20 1032.14 1032.10 1032.10 1032.13 1032.18 1032.25 1032.32 1032.39 1032.44 1032.48 1032.50 1032.49 1032.47 1032.44 1032.42 1032.41 1032.43 1032.47 1032.53 1032.61 1032.70 1032.78 1032.82 1032.83 1032.78 1032.67 1032.48 1032.21
1031.24 1031.43 1031.64 1031.84 1032.03 1032.18 1032.30 1032.36 1032.38 1032.36 1032.30 1032.22 1032.13 1032.03 1031.95 1031.89 1031.86 1031.85 1031.87 1031.91 1031.96 1032.01 1032.05 1032.07 1032.08 1032.06 1032.02 1031.96 1031.90 1031.85 1031.81 1031.79 1031.80 1031.84 1031.89 1031.95 1032.00 1032.03 1032.02 1031.96 1031.84 1031.65 1031.39
1030.87 1031.09 1031.32 1031.54 1031.73 1031.89 1032.00 1032.07 1032.08 1032.05 1031.99 1031.90 1031.80 1031.71 1031.63 1031.57 1031.53 1031.52 1031.53 1031.55 1031.58 1031.61 1031.63 1031.62 1031.59 1031.54 1031.47 1031.39 1031.30 1031.22 1031.15 1031.10 1031.07 1031.06 1031.07 1031.08 1031.09 1031.07 1031.02 1030.93 1030.78 1030.57 1030.29
1030.50 1030.74 1030.99 1031.22 1031.41 1031.56 1031.67 1031.72 1031.72 1031.68 1031.61 1031.51 1031.42 1031.32 1031.24 1031.18 1031.14 1031.12 1031.12 1031.12 1031.13 1031.14 1031.12 1031.09 1031.03 1030.94 1030.85 1030.73 1030.61 1030.50 1030.40 1030.31 1030.24 1030.19 1030.14 1030.10 1030.04 1029.96 1029.86 1029.70 1029.51 1029.26 1028.95
1030.14 1030.39 1030.64 1030.87 1031.06 1031.20 1031.29 1031.32 1031.31 1031.26 1031.18 1031.08 1030.98 1030.89 1030.81 1030.74 1030.70 1030.67 1030.65 1030.64 1030.62 1030.59 1030.54 1030.47 1030.38 1030.26 1030.13 1029.98 1029.83 1029.69 1029.55 1029.42 1029.31 1029.20 1029.10 1028.99 1028.87 1028.73 1028.55 1028.34 1028.08 1027.77 1027.42
1029.78 1030.04 1030.28 1030.50 1030.67 1030.79 1030.86 1030.88 1030.86 1030.80 1030.72 1030.62 1030.53 1030.44 1030.36 1030.30 1030.25 1030.20 1030.16 1030.12 1030.07 1030.00 1029.91 1029.79 1029.65 1029.49 1029.32 1029.14 1028.95 1028.77 1028.59 1028.42 1028.26 1028.10 1027.95 1027.78 1027.59 1027.38 1027.14 1026.86 1026.54 1026.18 1025.77
Thickness
5420 5422 5423 5425 5426 5427 5428 5430 5431 5433 5434 5435 5436 5437 5438 5439 5440 5440 5440 5440 5440 5440 5439 5440 5439 5438 5438 5437 5437 5438 5438 5439 5440 5443 5443 5444 5446 5448 5450 5452 5454 5456 5459
5407 5408 5410 5411 5412 5414 5415 5416 5418 5419 5420 5422 5423 5424 5425 5425 5426 5427 5427 5428 5427 5427 5427 5427 5426 5426 5425 5425 5425 5425 5425 5426 5427 5429 5430 5430 5432 5434 5436 5438 5441 5443 5446
5394 5395 5396 5397 5398 5400 5401 5403 5404 5406 5407 5408 5409 5410 5411 5412 5413 5414 5415 5415 5415 5415 5415 5414 5414 5413 5413 5412 5412 5412 5413 5414 5414 5415 5418 5418 5419 5420 5422 5424 5426 5428 5431
5381 5382 5383 5383 5385 5386 5388 5389 5391 5393 5394 5395 5396 5397 5398 5399 5400 5402 5402 5402 5402 5402 5402 5401 5401 5401 5400 5400 5400 5400 5400 5400 5400 5402 5404 5405 5405 5406 5407 5409 5411 5413 5417
5367 5368 5369 5370 5372 5373 5374 5375 5377 5379 5380 5381 5382 5383 5384 5385 5387 5388 5389 5389 5389 5389 5389 5388 5388 5389 5389 5388 5388 5388 5388 5388 5388 5389 5391 5391 5392 5392 5393 5394 5396 5399 5402
5354 5355 5356 5357 5359 5360 5361 5362 5363 5365 5366 5367 5368 5369 5370 5372 5374 5375 5376 5376 5376 5376 5376 5376 5376 5376 5376 5376 5377 5378 5378 5377 5376 5376 5377 5379 5381 5380 5380 5381 5381 5383 5387
5340 5341 5343 5344 5345 5346 5347 5348 5348 5350 5352 5353 5354 5356 5357 5359 5360 5362 5363 5363 5363 5364 5364 5364 5364 5364 5364 5364 5365 5365 5365 5365 5366 5366 5366 5368 5368 5368 5367 5368 5368 5369 5372
5327 5328 5329 5330 5331 5332 5333 5334 5334 5335 5337 5339 5340 5341 5344 5346 5347 5349 5350 5350 5350 5351 5352 5352 5352 5353 5353 5352 5353 5353 5353 5353 5353 5354 5355 5356 5356 5356 5356 5356 5356 5356 5357
5315 5315 5316 5317 5318 5319 5320 5320 5320 5321 5322 5324 5326 5327 5329 5332 5334 5336 5337 5337 5338 5339 5340 5340 5341 5341 5342 5342 5341 5341 5341 5340 5340 5341 5342 5343 5343 5343 5342 5341 5341 5341 5343
5302 5303 5304 5304 5305 5305 5306 5306 5306 5307 5308 5310 5312 5313 5315 5317 5319 5322 5323 5324 5326 5328 5328 5328 5329 5330 5330 5330 5330 5330 5329 5329 5328 5328 5328 5329 5329 5329 5329 5329 5329 5328 5329
5291 5291 5291 5292 5292 5292 5292 5292 5293 5294 5295 5295 5297 5299 5301 5303 5305 5308 5309 5311 5313 5315 5316 5317 5317 5318 5319 5319 5319 5318 5319 5317 5316 5316 5315 5315 5315 5315 5315 5315 5315 5315 5316
5279 5279 5279 5279 5279 5280 5280 5280 5280 5280 5280 5281 5282 5284 5287 5289 5292 5294 5296 5299 5301 5302 5304 5305 5305 5306 5306 5306 5306 5307 5306 5305 5304 5303 5303 5302 5302 5302 5302 5302 5302 5302 5303
5267 5267 5267 5267 5267 5267 5267 5267 5267 5267 5267 5268 5269 5270 5273 5275 5278 5281 5283 5286 5288 5289 5291 5293 5293 5293 5293 5293 5294 5294 5293 5292 5292 5291 5291 5291 5291 5291 5290 5290 5290 5290 5291
5256 5255 5256 5256 5256 5256 5256 5256 5255 5255 5254 5255 5256 5257 5259 5261 5264 5266 5269 5271 5273 5275 5277 5279 5280 5280 5280 5280 5280 5280 5279 5280 5280 5281 5280 5279 5279 5278 5279 5279 5278 5279 5279
5245 5245 5245 5245 5244 5244 5244 5244 5244 5244 5243 5244 5244 5245 5247 5249 5251 5254 5255 5257 5259 5262 5263 5263 5264 5264 5265 5266 5266 5266 5266 5266 5267 5268 5268 5267 5267 5267 5267 5267 5267 5267 5266
5235 5234 5234 5234 5234 5233 5233 5234 5234 5234 5235 5235 5236 5236 5236 5238 5240 5242 5244 5246 5248 5250 5250 5251 5251 5252 5252 5253 5253 5253 5253 5254 5254 5255 5255 5255 5255 5255 5255 5255 5256 5256 5256
5223 5223 5223 5223 5223 5222 5222 5223 5223 5224 5224 5224 5225 5225 5226 5227 5229 5230 5231 5233 5235 5237 5236 5237 5238 5239 5239 5240 5241 5241 5241 5241 5242 5242 5243 5243 5244 5244 5244 5244 5245 5245 5246
5214 5214 5213 5212 5211 5211 5211 5211 5211 5211 5211 5211 5212 5213 5214 5215 5216 5217 5219 5220 5220 5221 5221 5222 5224 5225 5226 5227 5228 5229 5229 5229 5229 5230 5231 5232 5232 5233 5233 5233 5234 5234 5235
5204 5203 5202 5201 5201 5200 5200 5199 5199 5198 5198 5198 5199 5199 5200 5201 5203 5203 5204 5204 5205 5207 5208 5209 5210 5212 5213 5214 5215 5216 5216 5217 5218 5218 5219 5220 5221 5221 5222 5223 5223 5224 5225
5194 5194 5193 5192 5190 5189 5188 5188 5187 5186 5186 5185 5185 5186 5187 5188 5188 5189 5190 5190 5192 5194 5196 5197 5198 5200 5201 5202 5203 5204 5205 5205 5206 5207 5208 5209 5210 5211 5212 5212 5213 5213 5214
5185 5184 5184 5182 5180 5178 5177 5176 5175 5174 5174 5173 5174 5175 5177 5176 5177 5177 5178 5179 5180 5182 5184 5186 5187 5189 5190 5191 5192 5193 5194 5195 5196 5197 5198 5199 5200 5201 5202 5202 5203 5203 5203
5176 5174 5172 5170 5169 5168 5167 5166 5165 5164 5163 5163 5163 5164 5166 5165 5166 5166 5168 5169 5171 5172 5174 5175 5177 5179 5180 5181 5182 5183 5185 5186 5187 5188 5189 5189 5190 5191 5192 5192 5193 5193 5193
5166 5164 5163 5161 5159 5159 5158 5156 5155 5154 5153 5153 5153 5153 5154 5154 5155 5157 5158 5160 5161 5163 5165 5166 5168 5169 5171 5172 5173 5174 5175 5177 5178 5179 5180 5181 5181 5182 5183 5183 5183 5183 5184
5156 5155 5153 5151 5150 5149 5147 5146 5145 5144 5144 5143 5143 5144 5144 5144 5145 5147 5149 5151 5152 5154 5156 5157 5159 5161 5162 5164 5165 5166 5167 5168 5169 5170 5171 5172 5173 5174 5174 5174 5174 5174 5175
5147 5145 5144 5142 5141 5139 5138 5137 5136 5135 5135 5134 5134 5134 5134 5135 5136 5138 5140 5142 5144 5146 5147 5149 5151 5152 5154 5156 5157 5159 5160 5161 5162 5163 5164 5165 5165 5166 5166 5166 5166 5166 5166
5138 5136 5134 5133 5131 5130 5129 5128 5128 5127 5126 5126 5126 5126 5126 5127 5128 5130 5132 5133 5135 5137 5139 5141 5143 5145 5147 5148 5150 5152 5153 5154 5155 5156 5157 5158 5158 5159 5159 5160 5160 5159 5159